When you browse on this site, cookies collect data to enhance your experience and personalize the content and advertising you see.
Visit our Privacy Policy to learn more. By continuing to use the site, you agree to this use of cookies and data.
  • Em Portugal
  • Lista de países
  • Para 7 dias
  • Temperatura da água
  • Mapa do tempo
  • Widgets de tempo
  • user-avatar
    Iniciar Sessão

    Previsão horária em Petrokamenskoe

    Hoje, 29 Maio, Sexta-feira

    Tempo Temperatura Precipitação Vento Pressão Humidade
    00:00 +10°C° 0 mm 2 m/s 746 mmHg 83%
    01:00 +10°C° 0 mm 2 m/s 746 mmHg 84%
    02:00 +10°C° 0 mm 2 m/s 746 mmHg 84%
    03:00 +10°C° 0 mm 3 m/s 747 mmHg 85%
    04:00 +10°C° 0 mm 3 m/s 747 mmHg 82%
    05:00 +12°C° 0 mm 3 m/s 747 mmHg 74%
    06:00 +14°C° 0 mm 4 m/s 747 mmHg 67%
    07:00 +15°C° 0 mm 4 m/s 747 mmHg 59%
    08:00 +18°C° 0 mm 4 m/s 747 mmHg 54%
    09:00 +19°C° 0 mm 4 m/s 747 mmHg 50%
    10:00 +20°C° 0 mm 4 m/s 746 mmHg 45%
    11:00 +21°C° 0 mm 4 m/s 746 mmHg 44%
    12:00 +21°C° 0 mm 4 m/s 746 mmHg 43%
    13:00 +22°C° 0 mm 4 m/s 746 mmHg 41%
    14:00 +21°C° 0 mm 4 m/s 746 mmHg 43%
    15:00 +21°C° 0 mm 4 m/s 746 mmHg 45%
    16:00 +20°C° 0 mm 4 m/s 746 mmHg 47%
    17:00 +20°C° 0 mm 3 m/s 746 mmHg 52%
    18:00 +19°C° 0 mm 2 m/s 746 mmHg 56%
    19:00 +19°C° 0 mm 2 m/s 746 mmHg 61%
    20:00 +17°C° 0 mm 2 m/s 746 mmHg 65%
    21:00 +16°C° 0 mm 2 m/s 746 mmHg 69%
    22:00 +15°C° 0 mm 2 m/s 746 mmHg 73%
    23:00 +14°C° 0 mm 2 m/s 746 mmHg 75%

    Amanhã, 30 Maio, Sábado

    Tempo Temperatura Precipitação Vento Pressão Humidade
    00:00 +13°C° 0 mm 2 m/s 746 mmHg 77%
    01:00 +12°C° 0 mm 2 m/s 745 mmHg 79%
    02:00 +12°C° 0 mm 2 m/s 746 mmHg 79%
    03:00 +12°C° 0 mm 2 m/s 746 mmHg 79%
    04:00 +12°C° 0 mm 2 m/s 746 mmHg 78%
    05:00 +14°C° 0 mm 2 m/s 746 mmHg 73%
    06:00 +16°C° 0 mm 3 m/s 745 mmHg 68%
    07:00 +18°C° 0 mm 3 m/s 745 mmHg 63%
    08:00 +19°C° 0 mm 4 m/s 745 mmHg 60%
    09:00 +19°C° 0 mm 4 m/s 745 mmHg 58%
    10:00 +20°C° 0 mm 4 m/s 745 mmHg 55%
    11:00 +20°C° 0 mm 4 m/s 744 mmHg 59%
    12:00 +19°C° 0 mm 3 m/s 744 mmHg 62%
    13:00 +18°C° 0 mm 3 m/s 744 mmHg 65%
    14:00 +18°C° 0 mm 3 m/s 744 mmHg 69%
    15:00 +17°C° 0 mm 3 m/s 744 mmHg 72%
    16:00 +17°C° 0 mm 3 m/s 744 mmHg 76%
    17:00 +16°C° 0.2 mm 2 m/s 744 mmHg 81%
    18:00 +15°C° 0.2 mm 2 m/s 743 mmHg 86%
    19:00 +14°C° 0.2 mm 1 m/s 743 mmHg 91%
    20:00 +14°C° 0.3 mm 1 m/s 743 mmHg 93%
    21:00 +13°C° 0.3 mm 1 m/s 743 mmHg 94%
    22:00 +12°C° 0.3 mm 1 m/s 743 mmHg 96%
    23:00 +12°C° 0 mm 1 m/s 743 mmHg 95%

    Depois de amanhã, 31 Maio, Domingo

    Tempo Temperatura Precipitação Vento Pressão Humidade
    00:00 +12°C° 0 mm 1 m/s 743 mmHg 95%
    01:00 +10°C° 0 mm 0 m/s 743 mmHg 94%
    02:00 +10°C° 0 mm 0 m/s 743 mmHg 94%
    03:00 +10°C° 0 mm 0 m/s 742 mmHg 95%
    04:00 +10°C° 0 mm 0 m/s 742 mmHg 95%
    05:00 +11°C° 0 mm 1 m/s 742 mmHg 94%
    06:00 +12°C° 0 mm 2 m/s 741 mmHg 93%
    07:00 +12°C° 0 mm 2 m/s 741 mmHg 92%
    08:00 +11°C° 0.3 mm 3 m/s 741 mmHg 92%
    09:00 +10°C° 0.3 mm 3 m/s 741 mmHg 92%
    10:00 +10°C° 0.3 mm 4 m/s 740 mmHg 92%
    11:00 +8°C° 0.2 mm 4 m/s 740 mmHg 90%
    12:00 +8°C° 0.2 mm 4 m/s 740 mmHg 89%
    13:00 +8°C° 0.2 mm 5 m/s 739 mmHg 87%
    14:00 +8°C° 1.7 mm 4 m/s 739 mmHg 89%
    15:00 +7°C° 1.7 mm 4 m/s 739 mmHg 92%
    16:00 +7°C° 1.7 mm 4 m/s 739 mmHg 95%
    17:00 +7°C° 2.5 mm 4 m/s 739 mmHg 95%
    18:00 +7°C° 2.5 mm 4 m/s 738 mmHg 96%
    19:00 +6°C° 2.5 mm 4 m/s 738 mmHg 96%
    20:00 +6°C° 2.2 mm 4 m/s 738 mmHg 96%
    21:00 +6°C° 2.2 mm 5 m/s 738 mmHg 96%
    22:00 +6°C° 2.2 mm 5 m/s 737 mmHg 96%
    23:00 +6°C° 3 mm 5 m/s 737 mmHg 96%

    1 Junho, Segunda-feira

    Tempo Temperatura Precipitação Vento Pressão Humidade
    00:00 +6°C° 3 mm 5 m/s 737 mmHg 96%
    01:00 +6°C° 3 mm 5 m/s 737 mmHg 96%
    02:00 +6°C° 0.7 mm 5 m/s 737 mmHg 96%
    03:00 +6°C° 0.7 mm 5 m/s 737 mmHg 96%
    04:00 +6°C° 0.7 mm 4 m/s 737 mmHg 95%
    05:00 +6°C° 0.8 mm 4 m/s 737 mmHg 95%
    06:00 +6°C° 0.8 mm 4 m/s 737 mmHg 95%
    07:00 +6°C° 0.8 mm 4 m/s 737 mmHg 96%
    08:00 +6°C° 0.4 mm 4 m/s 737 mmHg 95%
    09:00 +6°C° 0.4 mm 4 m/s 738 mmHg 94%
    10:00 +6°C° 0.4 mm 4 m/s 738 mmHg 93%
    11:00 +6°C° 0.1 mm 4 m/s 738 mmHg 93%
    12:00 +8°C° 0.1 mm 3 m/s 738 mmHg 92%
    13:00 +8°C° 0.1 mm 3 m/s 738 mmHg 92%
    14:00 +8°C° 0.5 mm 3 m/s 738 mmHg 93%
    15:00 +8°C° 0.5 mm 3 m/s 739 mmHg 94%
    16:00 +8°C° 0.5 mm 2 m/s 739 mmHg 95%
    17:00 +8°C° 0.4 mm 2 m/s 739 mmHg 96%
    18:00 +8°C° 0.4 mm 2 m/s 739 mmHg 97%
    19:00 +8°C° 0.4 mm 2 m/s 739 mmHg 97%
    20:00 +8°C° 0.1 mm 2 m/s 739 mmHg 97%
    21:00 +7°C° 0.1 mm 2 m/s 739 mmHg 97%
    22:00 +7°C° 0.1 mm 2 m/s 739 mmHg 97%
    23:00 +7°C° 0.1 mm 3 m/s 738 mmHg 97%

    2 Junho, Terça-feira

    Tempo Temperatura Precipitação Vento Pressão Humidade
    00:00 +7°C° 0.1 mm 3 m/s 738 mmHg 97%
    01:00 +7°C° 0.1 mm 3 m/s 738 mmHg 97%
    02:00 +8°C° 1.1 mm 3 m/s 738 mmHg 97%
    03:00 +8°C° 1.1 mm 3 m/s 738 mmHg 98%
    04:00 +8°C° 1.1 mm 3 m/s 737 mmHg 98%
    05:00 +8°C° 0.6 mm 3 m/s 737 mmHg 98%
    06:00 +8°C° 0.6 mm 3 m/s 738 mmHg 98%
    07:00 +8°C° 0.6 mm 2 m/s 738 mmHg 98%
    08:00 +10°C° 0.1 mm 2 m/s 738 mmHg 94%
    09:00 +12°C° 0.1 mm 2 m/s 738 mmHg 90%
    10:00 +13°C° 0.1 mm 2 m/s 738 mmHg 86%
    11:00 +14°C° 0.2 mm 2 m/s 738 mmHg 84%
    12:00 +14°C° 0.2 mm 2 m/s 738 mmHg 81%
    13:00 +14°C° 0.2 mm 3 m/s 738 mmHg 78%
    14:00 +14°C° 0.2 mm 2 m/s 738 mmHg 78%
    15:00 +14°C° 0.2 mm 2 m/s 738 mmHg 78%
    16:00 +14°C° 0.2 mm 2 m/s 738 mmHg 78%
    17:00 +14°C° 0.3 mm 2 m/s 739 mmHg 81%
    18:00 +13°C° 0.3 mm 2 m/s 739 mmHg 83%
    19:00 +13°C° 0.3 mm 1 m/s 739 mmHg 85%
    20:00 +11°C° 0.1 mm 1 m/s 739 mmHg 89%
    21:00 +9°C° 0.1 mm 2 m/s 740 mmHg 93%
    22:00 +8°C° 0.1 mm 2 m/s 740 mmHg 96%
    23:00 +8°C° 0 mm 2 m/s 740 mmHg 96%

    3 Junho, Quarta-feira

    Tempo Temperatura Precipitação Vento Pressão Humidade
    00:00 +8°C° 0 mm 2 m/s 740 mmHg 96%
    01:00 +8°C° 0 mm 2 m/s 741 mmHg 97%
    02:00 +8°C° 0 mm 2 m/s 741 mmHg 96%
    03:00 +8°C° 0 mm 2 m/s 741 mmHg 96%
    04:00 +8°C° 0 mm 2 m/s 741 mmHg 95%
    05:00 +8°C° 0 mm 2 m/s 741 mmHg 94%
    06:00 +8°C° 0 mm 2 m/s 742 mmHg 93%
    07:00 +9°C° 0 mm 3 m/s 742 mmHg 91%
    08:00 +10°C° 0.1 mm 3 m/s 742 mmHg 89%
    09:00 +10°C° 0.1 mm 3 m/s 742 mmHg 86%
    10:00 +11°C° 0.1 mm 3 m/s 742 mmHg 83%
    11:00 +12°C° 0.2 mm 3 m/s 742 mmHg 80%
    12:00 +12°C° 0.2 mm 3 m/s 742 mmHg 76%
    13:00 +13°C° 0.2 mm 3 m/s 742 mmHg 72%
    14:00 +14°C° 0.1 mm 3 m/s 742 mmHg 70%
    15:00 +14°C° 0.1 mm 3 m/s 742 mmHg 67%
    16:00 +14°C° 0.1 mm 3 m/s 742 mmHg 65%
    17:00 +14°C° 0.1 mm 3 m/s 742 mmHg 70%
    18:00 +14°C° 0.1 mm 2 m/s 742 mmHg 75%
    19:00 +13°C° 0.1 mm 2 m/s 742 mmHg 80%
    20:00 +12°C° 0 mm 2 m/s 742 mmHg 82%
    21:00 +9°C° 0 mm 2 m/s 742 mmHg 85%
    22:00 +8°C° 0 mm 2 m/s 742 mmHg 87%
    23:00 +8°C° 0 mm 2 m/s 743 mmHg 87%
    Mostrar mais